Location: Walnut Point State Park
(39.6958°N, 88.0345°W)
Time: 13:53:26
(UTC-06:00)

Amateur Radio Satellites - All Passes

Search period start: 02 December 2016 13:23
Search period end: 03 December 2016 13:23
Location: Walnut Point State Park, 39.6958°N, 88.0345°W

Satellite Date Start Highest point End Downlink Frequencies (MHz)
Time Altitude Azimuth
DX 1 02 Dec 13:32:02 13:35:10 19° 294° (WNW) 13:38:17 434.975-435.025
SWISSCUBE 02 Dec 13:38:54 13:42:39 23° 95° (E) 13:46:23 437.505
Cosmos 2499 02 Dec 13:40:30 13:47:03 25° 279° (W) 13:53:20 435.465 / 435.565
BEESAT 02 Dec 13:43:25 13:47:10 23° 95° (E) 13:50:53 436.000
UKube-1 02 Dec 13:47:44 13:50:35 17° 295° (WNW) 13:53:27 .
Gurwin Techsat 1B 02 Dec 13:50:54 13:55:40 33° 263° (W) 14:00:28 435.225
AO-7 02 Dec 13:58:45 14:06:46 57° 66° (ENE) 14:14:51 29.400- 29.500
RS-15 02 Dec 13:59:11 14:08:45 25° 20° (NNE) 14:18:12 29.354- 29.394
BEESAT 3 02 Dec 14:01:34 14:05:06 29° 51° (NE) 14:08:36 437.485
ITUPSAT 1 02 Dec 14:07:42 14:12:10 39° 99° (E) 14:16:36 437.325
TISAT 1 02 Dec 14:09:40 14:13:26 32° 290° (WNW) 14:17:10 437.305
JUGNU 02 Dec 14:11:00 14:11:10 10° 179° (S) 14:11:20 437.505
BEESAT 2 02 Dec 14:21:51 14:25:08 23° 49° (NE) 14:28:24 435.950
AUBIESAT-1 02 Dec 14:22:59 14:27:33 58° 105° (ESE) 14:31:57 437.475
M-CUBED/EXP-1 PRIME 02 Dec 14:31:31 14:36:15 88° 108° (ESE) 14:40:50 437.505
ITAMSAT 1 02 Dec 14:47:12 14:52:07 41° 261° (W) 14:57:03 435.822/435.867
KKS-1 02 Dec 14:51:59 14:52:52 10° 90° (E) 14:53:44 437.445
HORYU 2 02 Dec 15:03:59 15:05:33 12° 62° (ENE) 15:07:06 437.375
SWISSCUBE 02 Dec 15:16:11 15:20:30 35° 290° (WNW) 15:24:47 437.505
BEESAT 02 Dec 15:20:40 15:25:00 35° 290° (WNW) 15:29:18 436.000
MOZHAYETS 4 02 Dec 15:25:27 15:30:00 65° 101° (ESE) 15:34:30
O/OREOS (USA 219) 02 Dec 15:27:05 15:30:04 17° 100° (E) 15:33:02 437.305
BEESAT 3 02 Dec 15:39:24 15:42:36 23° 247° (WSW) 15:45:46 437.485
ITUPSAT 1 02 Dec 15:46:09 15:49:43 21° 295° (WNW) 15:53:16 437.325
AO-7 02 Dec 15:52:45 15:59:51 31° 263° (W) 16:07:02 29.400- 29.500
CUTE-I 02 Dec 15:54:12 15:56:52 14° 60° (ENE) 15:59:33 437.470
AUBIESAT-1 02 Dec 15:58:37 16:01:26 16° 301° (WNW) 16:04:13 437.475
BEESAT 2 02 Dec 15:59:22 16:02:57 31° 246° (WSW) 16:06:32 435.950
ISS 02 Dec 16:00:32 16:00:52 10° 128° (SE) 16:01:12 145.825
GOMX 1 02 Dec 16:02:58 16:06:27 23° 66° (ENE) 16:10:07 467.674
BRITE-PL 02 Dec 16:05:35 16:09:41 57° 74° (ENE) 16:14:03 437.365/2234.400
M-CUBED/EXP-1 PRIME 02 Dec 16:08:23 16:09:58 12° 304° (NW) 16:11:31 437.505
RS-15 02 Dec 16:12:27 16:24:43 60° 50° (NE) 16:36:32 29.354- 29.394
AIST 2 02 Dec 16:14:08 16:15:52 12° 41° (NE) 16:17:35 435.215
Cubesat XI-IV 02 Dec 16:17:08 16:21:13 22° 64° (ENE) 16:25:18 437.490
KKS-1 02 Dec 16:25:22 16:29:51 68° 286° (WNW) 16:34:16 437.445
LilacSat-2 02 Dec 16:25:31 16:28:18 19° 68° (ENE) 16:31:04 437.200
NOAA 15 02 Dec 16:28:08 16:32:41 31° 67° (ENE) 16:37:14 137.62
DOVE 4 02 Dec 16:34:00 16:37:31 21° 65° (ENE) 16:41:11 437.250
HORYU 2 02 Dec 16:37:01 16:41:29 71° 258° (WSW) 16:45:58 437.375
STARS 02 Dec 16:42:39 16:47:06 86° 99° (E) 16:51:31 437.465
HO-68 02 Dec 16:49:32 16:52:38 13° 52° (NE) 16:55:43 435.675
CUBESAT XI-V 02 Dec 16:54:03 16:58:44 81° 103° (ESE) 17:03:24 437.345
MOZHAYETS 4 02 Dec 17:04:38 17:06:35 13° 297° (WNW) 17:08:32
O/OREOS (USA 219) 02 Dec 17:04:44 17:09:05 43° 296° (WNW) 17:13:27 437.305
NOAA 18 02 Dec 17:06:17 17:11:28 42° 69° (ENE) 17:16:40 137.9125
Cosmos 2491 02 Dec 17:09:08 17:16:38 31° 70° (ENE) 17:24:05 435.465 / 435.565
CUTE-I 02 Dec 17:30:50 17:36:13 79° 257° (WSW) 17:41:37 437.470
ISS 02 Dec 17:33:37 17:36:54 80° 325° (NW) 17:40:13 145.825
YUBILEINY 02 Dec 17:39:49 17:45:19 19° 78° (ENE) 17:50:50 435.215
GOMX 1 02 Dec 17:40:19 17:44:18 33° 264° (W) 17:48:35 467.674
BRITE-PL 02 Dec 17:47:32 17:48:41 11° 271° (W) 17:49:51 437.365/2234.400
AIST 2 02 Dec 17:50:41 17:54:57 88° 236° (SW) 17:59:09 435.215
Cubesat XI-IV 02 Dec 17:55:46 18:00:56 47° 261° (W) 18:06:08 437.490
LilacSat-2 02 Dec 17:59:02 18:02:24 28° 264° (W) 18:05:46 437.200
CUTE 1.7 + AOD 2 02 Dec 18:01:10 18:04:28 22° 68° (ENE) 18:07:45 437.475
NOAA 15 02 Dec 18:07:44 18:12:22 32° 263° (W) 18:17:01 137.62
DOVE 4 02 Dec 18:10:29 18:14:51 41° 263° (W) 18:19:31 437.250
CANX-2 02 Dec 18:17:34 18:21:30 39° 72° (ENE) 18:25:26 2200.000
CINEMA 3 02 Dec 18:20:02 18:24:50 65° 75° (ENE) 18:29:48 145.822/145.860
UWE-3 02 Dec 18:22:46 18:24:27 12° 63° (ENE) 18:26:08 435.000/436.395/437.385
RS-15 02 Dec 18:25:37 18:36:48 43° 253° (WSW) 18:47:38 29.354- 29.394
HO-68 02 Dec 18:31:58 18:39:03 70° 71° (ENE) 18:46:12 435.675
CUBESAT XI-V 02 Dec 18:34:19 18:35:25 11° 299° (WNW) 18:36:30 437.345
AAUSAT CUBESAT 2 02 Dec 18:43:59 18:47:13 23° 69° (ENE) 18:50:28 437.432
NOAA 18 02 Dec 18:47:44 18:52:14 25° 265° (W) 18:56:46 137.9125
SEEDS 02 Dec 18:51:10 18:55:15 55° 74° (ENE) 18:59:20 437.485
STRAND 1 02 Dec 18:55:26 19:00:23 49° 99° (E) 19:05:18 437.568
AIST 1 02 Dec 19:04:11 19:07:08 18° 87° (E) 19:10:06
CUBEBUG 2 02 Dec 19:04:52 19:09:27 49° 73° (ENE) 19:14:02 437.445
Cosmos 2491 02 Dec 19:05:26 19:13:51 56° 270° (W) 19:22:15 435.465 / 435.565
COMPASS 1 02 Dec 19:09:12 19:13:15 59° 75° (ENE) 19:17:19 437.405
ZACube-1 02 Dec 19:10:45 19:14:18 23° 68° (ENE) 19:17:51 437.345
ISS 02 Dec 19:11:36 19:13:51 17° 341° (NNW) 19:16:05 145.825
Cosmos 2504 02 Dec 19:17:21 19:24:49 40° 86° (E) 19:32:43 435.465 / 435.565
FUNcube-1 02 Dec 19:20:30 19:24:17 26° 69° (ENE) 19:28:03 145.935
YUBILEINY 02 Dec 19:32:13 19:40:55 83° 277° (W) 19:49:43 435.215
CUTE 1.7 + AOD 2 02 Dec 19:36:28 19:40:08 29° 264° (W) 19:43:49 437.475
PCSat 02 Dec 19:50:46 19:54:26 18° 45° (NE) 19:58:06 145.827
CANX-2 02 Dec 19:54:52 19:57:31 16° 268° (W) 20:00:10 2200.000
UWE-3 02 Dec 19:55:36 20:00:16 74° 258° (WSW) 20:04:56 435.000/436.395/437.385
Oscar 11 02 Dec 19:55:44 19:59:59 59° 75° (ENE) 20:04:15 145.826/435.025
PRISM 02 Dec 19:56:59 19:58:40 12° 92° (E) 20:00:21 437.425
CINEMA 3 02 Dec 20:00:05 20:02:24 13° 271° (W) 20:04:46 145.822/145.860
DELFI C3 02 Dec 20:16:18 20:19:49 33° 72° (ENE) 20:23:22 145.870
AAUSAT CUBESAT 2 02 Dec 20:19:05 20:22:33 26° 264° (W) 20:26:04 437.432
HO-68 02 Dec 20:22:13 20:27:20 21° 268° (W) 20:32:29 435.675
SEEDS 02 Dec 20:29:58 20:31:15 11° 270° (W) 20:32:33 437.485
SO-50 02 Dec 20:30:23 20:35:06 60° 118° (ESE) 20:39:46 436.795
STRAND 1 02 Dec 20:35:33 20:39:11 20° 296° (WNW) 20:42:48 437.568
AIST 1 02 Dec 20:40:33 20:44:26 33° 283° (WNW) 20:48:23
CUBEBUG 2 02 Dec 20:43:17 20:46:17 17° 268° (W) 20:49:18 437.445
ZACube-1 02 Dec 20:46:13 20:50:23 34° 263° (W) 20:54:31 437.345
COMPASS 1 02 Dec 20:48:36 20:49:09 10° 270° (W) 20:49:42 437.405
ISS 02 Dec 20:50:39 20:51:26 11° 1° (N) 20:52:13 145.825
CUSAT 1 02 Dec 20:52:15 20:55:38 63° 262° (W) 21:00:00 437.405
UNISAT 6 02 Dec 20:54:40 20:56:23 12° 90° (E) 20:58:03 437.425
FUNcube-1 02 Dec 20:56:27 21:00:24 29° 264° (W) 21:04:20 145.935
DANDE 02 Dec 21:01:13 21:03:31 24° 78° (ENE) 21:06:05 436.750
Cosmos 2504 02 Dec 21:10:22 21:18:04 43° 286° (WNW) 21:26:18 435.465 / 435.565
HUMSAT D 02 Dec 21:12:00 21:16:15 81° 76° (ENE) 21:20:28 437.325/437.525
TIGRISAT 02 Dec 21:24:18 21:27:55 24° 95° (E) 21:31:27 435.000
ANTELSAT 02 Dec 21:24:39 21:28:23 26° 95° (E) 21:32:01 437.575/2403.000
ESTCUBE 1 02 Dec 21:25:16 21:28:06 17° 65° (ENE) 21:30:57 437.505/2401.250
PRISM 02 Dec 21:30:12 21:34:14 51° 287° (WNW) 21:38:16 437.425
PCSat 02 Dec 21:33:00 21:38:26 75° 244° (WSW) 21:43:49 145.827
YUBILEINY 02 Dec 21:34:04 21:39:09 16° 299° (WNW) 21:44:17 435.215
Oscar 11 02 Dec 21:35:08 21:36:29 11° 270° (W) 21:37:49 145.826/435.025
AISAT 02 Dec 21:48:50 21:50:54 13° 63° (ENE) 21:52:58 437.250
DELFI C3 02 Dec 21:52:11 21:54:43 16° 267° (W) 21:57:16 145.870
JAS-2 02 Dec 21:56:28 21:57:13 10° 90° (E) 21:57:58 435.910
SO-50 02 Dec 22:12:31 22:15:56 19° 316° (NW) 22:19:19 436.795
NANOSAT C BR1 02 Dec 22:22:33 22:22:57 10° 90° (E) 22:23:21 145.865
CUBEBUG 1 02 Dec 22:22:43 22:26:46 40° 72° (ENE) 22:30:52 437.445
QB50P2 02 Dec 22:23:15 22:25:09 13° 91° (E) 22:27:02 145.880/145.840
VELOX 1 02 Dec 22:24:02 22:27:49 29° 69° (ENE) 22:31:37 145.980
POLYITAN 1 02 Dec 22:24:06 22:25:47 12° 91° (E) 22:27:26 437.675
ISS 02 Dec 22:26:31 22:28:59 19° 22° (NNE) 22:31:26 145.825
UNISAT 6 02 Dec 22:29:06 22:33:28 57° 287° (WNW) 22:37:43 437.425
QB50P1 02 Dec 22:37:23 22:40:14 17° 93° (E) 22:43:05 145.935-145.965
DUCHIFAT 1 02 Dec 22:44:30 22:47:24 18° 93° (E) 22:50:16 145.980
DX 1 02 Dec 22:49:56 22:53:41 30° 69° (ENE) 22:57:29 434.975-435.025
50 SAT 02 Dec 22:50:16 22:53:34 41° 74° (ENE) 22:56:55 437.505
POPSAT HIP 1 02 Dec 22:57:50 23:01:34 29° 97° (E) 23:05:14 437.405
ESTCUBE 1 02 Dec 23:00:15 23:04:32 45° 261° (W) 23:08:51 437.505/2401.250
TIGRISAT 02 Dec 23:00:47 23:04:34 28° 291° (WNW) 23:08:16 435.000
ANTELSAT 02 Dec 23:01:18 23:05:00 26° 292° (WNW) 23:08:37 437.575/2403.000
UKube-1 02 Dec 23:04:27 23:08:15 31° 70° (ENE) 23:12:05 .
AISAT 02 Dec 23:22:29 23:26:50 60° 259° (W) 23:31:14 437.250
SPROUT 02 Dec 23:24:26 23:28:45 86° 75° (ENE) 23:33:05 437.525
TISAT 1 02 Dec 23:26:12 23:28:34 15° 65° (ENE) 23:30:57 437.305
JAS-2 02 Dec 23:37:45 23:42:56 79° 285° (WNW) 23:48:16 435.910
NANOSAT C BR1 02 Dec 23:54:52 23:59:04 63° 285° (WNW) 00:03:14 145.865
BUGSAT 1 02 Dec 23:55:53 23:59:55 43° 99° (E) 00:03:53 437.445
QB50P2 02 Dec 23:57:06 00:01:14 51° 287° (WNW) 00:05:19 145.880/145.840
POLYITAN 1 02 Dec 23:57:44 00:01:54 53° 286° (WNW) 00:05:59 437.675
CUBEBUG 1 03 Dec 00:00:22 00:03:13 17° 267° (W) 00:06:04 437.445
VELOX 1 03 Dec 00:00:38 00:04:14 24° 265° (W) 00:07:51 145.980
ISS 03 Dec 00:02:30 00:05:48 77° 220° (SW) 00:09:06 145.825
GONETS M04 03 Dec 00:09:38 00:17:41 43° 87° (E) 00:25:42
QB50P1 03 Dec 00:12:12 00:16:08 37° 289° (WNW) 00:20:01 145.935-145.965
DUCHIFAT 1 03 Dec 00:19:19 00:23:11 36° 289° (WNW) 00:27:01 145.980
Cosmos 2499 03 Dec 00:20:09 00:28:16 55° 90° (E) 00:36:49 435.465 / 435.565
DX 1 03 Dec 00:26:24 00:29:52 23° 265° (W) 00:33:21 434.975-435.025
50 SAT 03 Dec 00:26:37 00:27:05 10° 268° (W) 00:27:34 437.505
Gurwin Techsat 1B 03 Dec 00:30:12 00:32:00 12° 89° (E) 00:33:47 435.225
POPSAT HIP 1 03 Dec 00:33:50 00:37:10 23° 292° (WNW) 00:40:28 437.405
PHONESAT 2.4 03 Dec 00:39:14 00:40:06 11° 148° (SSE) 00:40:58 2401.200-2431.200
UKube-1 03 Dec 00:41:01 00:44:19 21° 265° (W) 00:47:37 .
SWISSCUBE 03 Dec 00:44:35 00:48:27 25° 67° (ENE) 00:52:20 437.505
BEESAT 03 Dec 00:49:03 00:52:54 25° 67° (ENE) 00:56:46 436.000
TISAT 1 03 Dec 00:59:41 01:03:47 48° 260° (W) 01:07:55 437.305
Oscar 19 03 Dec 01:00:52 01:05:53 48° 100° (E) 01:10:54 437.125/150
AUBIESAT-1 03 Dec 01:07:34 01:11:30 58° 69° (ENE) 01:15:45 437.475
ITUPSAT 1 03 Dec 01:13:27 01:17:58 42° 71° (ENE) 01:22:29 437.325
M-CUBED/EXP-1 PRIME 03 Dec 01:16:38 01:20:34 88° 252° (WSW) 01:24:53 437.505
BUGSAT 1 03 Dec 01:32:23 01:34:55 16° 295° (WNW) 01:37:24 437.445
O/OREOS (USA 219) 03 Dec 01:36:27 01:40:23 29° 61° (ENE) 01:44:16 437.305
AO-7 03 Dec 02:03:00 02:08:12 18° 91° (E) 02:13:21 29.400- 29.500
GONETS M04 03 Dec 02:06:27 02:14:29 40° 287° (WNW) 02:22:32
Gurwin Techsat 1B 03 Dec 02:07:11 02:12:32 80° 285° (WNW) 02:17:50 435.225
PHONESAT 2.4 03 Dec 02:12:23 02:14:59 52° 162° (SSE) 02:17:36 2401.200-2431.200
AO-85 03 Dec 02:13:35 02:18:25 51° 117° (ESE) 02:22:57 145.980
Cosmos 2499 03 Dec 02:14:21 02:21:45 33° 290° (WNW) 02:29:31 435.465 / 435.565
SWISSCUBE 03 Dec 02:21:46 02:26:04 33° 262° (W) 02:30:23 437.505
MOZHAYETS 4 03 Dec 02:26:11 02:30:41 55° 74° (ENE) 02:35:10
BEESAT 03 Dec 02:26:12 02:30:30 33° 263° (W) 02:34:50 436.000
Oscar 19 03 Dec 02:41:04 02:44:50 21° 296° (WNW) 02:48:37 437.125/150
AUBIESAT-1 03 Dec 02:45:04 02:46:21 11° 266° (W) 02:47:40 437.475
ITUPSAT 1 03 Dec 02:52:33 02:55:57 19° 266° (W) 02:59:23 437.325
ITAMSAT 1 03 Dec 03:00:26 03:05:39 75° 103° (ESE) 03:10:48 435.822/435.867
O/OREOS (USA 219) 03 Dec 03:16:00 03:19:39 25° 257° (WSW) 03:23:17 437.305
KKS-1 03 Dec 03:22:09 03:26:36 83° 258° (WSW) 03:31:07 437.445
STARS 03 Dec 03:38:01 03:42:24 68° 74° (ENE) 03:46:49 437.465
PHONESAT 2.4 03 Dec 03:47:36 03:50:15 71° 360° (N) 03:52:55 2401.200-2431.200
Gurwin Techsat 1B 03 Dec 03:50:40 03:51:35 10° 302° (WNW) 03:52:29 435.225
AO-7 03 Dec 03:53:29 04:01:54 89° 293° (WNW) 04:10:18 29.400- 29.500
AO-85 03 Dec 03:55:23 03:59:05 21° 313° (NW) 04:02:35 145.980
CUBESAT XI-V 03 Dec 03:56:15 04:00:48 70° 76° (ENE) 04:05:23 437.345
MOZHAYETS 4 03 Dec 04:05:51 04:08:10 14° 269° (W) 04:10:27
BRITE-PL 03 Dec 04:10:23 04:14:43 24° 94° (E) 04:19:11 437.365/2234.400
HORYU 2 03 Dec 04:29:21 04:32:51 22° 95° (E) 04:36:19 437.375
ITAMSAT 1 03 Dec 04:41:51 04:44:27 14° 300° (WNW) 04:47:03 435.822/435.867
NOAA 15 03 Dec 04:46:03 04:47:44 11° 89° (E) 04:49:25 137.62
SO-50 03 Dec 05:02:45 05:07:03 41° 52° (NE) 05:11:16 436.795
Cosmos 2504 03 Dec 05:12:38 05:17:05 15° 59° (ENE) 05:21:26 435.465 / 435.565
STARS 03 Dec 05:18:28 05:19:10 10° 270° (W) 05:19:53 437.465
PHONESAT 2.4 03 Dec 05:22:54 05:25:33 66° 195° (SSW) 05:28:11 2401.200-2431.200
BEESAT 3 03 Dec 05:27:44 05:31:35 66° 119° (ESE) 05:35:30 437.485
NOAA 18 03 Dec 05:30:03 05:33:51 19° 93° (E) 05:37:36 137.9125
LilacSat-2 03 Dec 05:32:49 05:36:10 29° 97° (E) 05:39:29 437.200
CUBESAT XI-V 03 Dec 05:37:46 05:38:39 10° 271° (W) 05:39:31 437.345
GOMX 1 03 Dec 05:41:27 05:46:55 76° 101° (E) 05:52:25 467.674
YUBILEINY 03 Dec 05:43:31 05:51:59 48° 76° (ENE) 06:00:24 435.215
AO-7 03 Dec 05:47:50 05:53:35 21° 308° (NW) 05:59:19 29.400- 29.500
BRITE-PL 03 Dec 05:48:13 05:53:15 44° 288° (WNW) 05:58:32 437.365/2234.400
CUTE-I 03 Dec 05:48:54 05:53:59 44° 99° (E) 05:59:02 437.470
BEESAT 2 03 Dec 05:49:31 05:53:19 50° 117° (ESE) 05:57:11 435.950
HO-68 03 Dec 06:03:51 06:06:30 12° 88° (E) 06:09:08 435.675
HORYU 2 03 Dec 06:05:29 06:09:24 31° 291° (WNW) 06:13:18 437.375
Cosmos 2491 03 Dec 06:09:25 06:17:10 37° 85° (E) 06:24:54 435.465 / 435.565
DOVE 4 03 Dec 06:09:31 06:14:48 62° 100° (E) 06:19:56 437.250
STRAND 1 03 Dec 06:10:18 06:15:23 65° 74° (ENE) 06:20:29 437.568
Cubesat XI-IV 03 Dec 06:13:34 06:18:55 75° 103° (ESE) 06:24:14 437.490
CINEMA 3 03 Dec 06:17:01 06:20:13 17° 91° (E) 06:23:19 145.822/145.860
NOAA 15 03 Dec 06:22:48 06:28:05 81° 286° (WNW) 06:33:21 137.62
RS-15 03 Dec 06:35:11 06:45:28 38° 106° (ESE) 06:56:11 29.354- 29.394
SO-50 03 Dec 06:43:53 06:47:12 20° 249° (WSW) 06:50:28 436.795
AIST 1 03 Dec 06:47:45 06:52:04 51° 80° (E) 06:56:21
PHONESAT 2.4 03 Dec 06:58:55 07:00:30 15° 210° (SSW) 07:02:06 2401.200-2431.200
CUBEBUG 2 03 Dec 07:00:06 07:00:29 10° 88° (E) 07:00:52 437.445
Cosmos 2504 03 Dec 07:03:20 07:12:13 73° 81° (E) 07:20:36 435.465 / 435.565
LilacSat-2 03 Dec 07:07:41 07:10:14 18° 292° (WNW) 07:12:46 437.200
BEESAT 3 03 Dec 07:07:42 07:09:38 13° 317° (NW) 07:11:36 437.485
NOAA 18 03 Dec 07:09:24 07:14:50 56° 289° (WNW) 07:20:12 137.9125
GOMX 1 03 Dec 07:21:18 07:24:19 15° 298° (WNW) 07:27:23 467.674
CUTE 1.7 + AOD 2 03 Dec 07:21:25 07:25:30 47° 99° (E) 07:29:34 437.475
BEESAT 2 03 Dec 07:28:51 07:31:24 16° 315° (NW) 07:33:58 435.950
CUTE-I 03 Dec 07:29:35 07:33:43 23° 295° (WNW) 07:37:50 437.470
CANX-2 03 Dec 07:38:37 07:42:51 89° 289° (WNW) 07:47:04 2200.000
YUBILEINY 03 Dec 07:40:43 07:48:30 37° 275° (W) 07:56:16 435.215
Oscar 11 03 Dec 07:46:00 07:47:22 11° 90° (E) 07:48:45 145.826/435.025
UWE-3 03 Dec 07:46:59 07:50:26 23° 94° (E) 07:53:46 435.000/436.395/437.385
HO-68 03 Dec 07:47:58 07:55:13 79° 105° (ESE) 08:02:25 435.675
AIST 2 03 Dec 07:48:00 07:51:13 23° 112° (ESE) 07:54:28 435.215
DOVE 4 03 Dec 07:48:29 07:51:54 18° 297° (WNW) 07:55:17 437.250
STRAND 1 03 Dec 07:52:19 07:54:59 14° 269° (W) 07:57:40 437.568
CINEMA 3 03 Dec 07:52:56 07:57:36 47° 288° (WNW) 08:02:04 145.822/145.860
UNISAT 6 03 Dec 07:53:07 07:54:49 12° 62° (ENE) 07:56:31 437.425
Cubesat XI-IV 03 Dec 07:55:29 07:58:20 15° 300° (WNW) 08:01:09 437.490
AAUSAT CUBESAT 2 03 Dec 08:01:12 08:05:11 46° 99° (E) 08:09:10 437.432
Cosmos 2491 03 Dec 08:05:21 08:13:44 47° 284° (WNW) 08:22:08 435.465 / 435.565
NOAA 15 03 Dec 08:06:05 08:06:59 10° 302° (WNW) 08:07:52 137.62
SEEDS 03 Dec 08:11:07 08:15:16 65° 284° (WNW) 08:19:25 437.485
PRISM 03 Dec 08:18:14 08:22:17 83° 257° (WSW) 08:26:23 437.425
TIGRISAT 03 Dec 08:22:01 08:25:36 22° 67° (ENE) 08:29:11 435.000
ANTELSAT 03 Dec 08:22:28 08:26:10 24° 67° (ENE) 08:29:51 437.575/2403.000
AIST 1 03 Dec 08:27:15 08:29:08 13° 276° (W) 08:31:02
COMPASS 1 03 Dec 08:27:57 08:32:03 63° 285° (WNW) 08:36:10 437.405
CUBEBUG 2 03 Dec 08:33:10 08:37:36 66° 285° (WNW) 08:41:51 437.445
ZACube-1 03 Dec 08:35:07 08:39:15 47° 99° (E) 08:43:17 437.345
FUNcube-1 03 Dec 08:44:43 08:48:55 57° 100° (E) 08:53:00 145.935
RS-15 03 Dec 08:45:35 08:57:15 64° 308° (NW) 09:09:32 29.354- 29.394
HUMSAT D 03 Dec 08:57:53 08:59:48 13° 91° (E) 09:01:41 437.325/437.525
Cosmos 2504 03 Dec 08:58:13 09:04:36 23° 280° (W) 09:10:48 435.465 / 435.565
CUTE 1.7 + AOD 2 03 Dec 08:58:39 09:00:55 14° 295° (WNW) 09:03:10 437.475
Oscar 11 03 Dec 09:19:38 09:23:52 58° 286° (WNW) 09:28:05 145.826/435.025
UWE-3 03 Dec 09:23:08 09:26:53 29° 290° (WNW) 09:30:32 435.000/436.395/437.385
AIST 2 03 Dec 09:25:47 09:29:30 32° 309° (NW) 09:33:16 435.215
UNISAT 6 03 Dec 09:26:11 09:30:54 75° 259° (WSW) 09:35:35 437.425
DELFI C3 03 Dec 09:28:27 09:32:23 62° 100° (E) 09:36:20 145.870
QB50P1 03 Dec 09:30:03 09:31:59 13° 64° (ENE) 09:33:56 145.935-145.965
DUCHIFAT 1 03 Dec 09:36:35 09:38:32 13° 64° (ENE) 09:40:29 145.980
HO-68 03 Dec 09:37:08 09:42:07 21° 303° (WNW) 09:47:06 435.675
AAUSAT CUBESAT 2 03 Dec 09:38:02 09:40:15 14° 295° (WNW) 09:42:28 437.432
JAS-2 03 Dec 09:48:24 09:54:35 42° 70° (ENE) 10:00:07 435.910
POPSAT HIP 1 03 Dec 09:49:48 09:53:00 21° 67° (ENE) 09:56:12 437.405
CUSAT 1 03 Dec 09:55:14 09:58:39 44° 279° (W) 10:01:30 437.405
TIGRISAT 03 Dec 09:57:41 10:02:02 37° 262° (W) 10:06:24 435.000
ANTELSAT 03 Dec 09:58:23 10:02:40 35° 263° (W) 10:06:57 437.575/2403.000
DANDE 03 Dec 10:07:33 10:12:42 54° 98° (E) 10:16:35 436.750
ZACube-1 03 Dec 10:12:47 10:15:06 14° 295° (WNW) 10:17:22 437.345
Cosmos 2499 03 Dec 10:14:05 10:19:53 19° 63° (ENE) 10:25:28 435.465 / 435.565
GONETS M04 03 Dec 10:21:26 10:27:29 20° 64° (ENE) 10:33:29
FUNcube-1 03 Dec 10:22:55 10:24:37 12° 297° (WNW) 10:26:19 145.935
HUMSAT D 03 Dec 10:31:45 10:35:39 45° 287° (WNW) 10:39:31 437.325/437.525
PCSat 03 Dec 10:33:04 10:36:07 15° 104° (ESE) 10:39:11 145.827
BUGSAT 1 03 Dec 10:44:45 10:48:20 28° 69° (ENE) 10:51:57 437.445
NANOSAT C BR1 03 Dec 10:45:32 10:49:47 84° 74° (ENE) 10:54:05 145.865
AO-85 03 Dec 10:46:24 10:49:57 29° 51° (NE) 10:53:22 145.980
QB50P2 03 Dec 10:48:13 10:52:30 79° 259° (W) 10:56:48 145.880/145.840
POLYITAN 1 03 Dec 10:48:49 10:53:07 83° 258° (WSW) 10:57:26 437.675
ESTCUBE 1 03 Dec 10:53:20 10:57:32 37° 98° (E) 11:01:43 437.505/2401.250
QB50P1 03 Dec 11:03:03 11:07:15 57° 260° (W) 11:11:30 145.935-145.965
RS-15 03 Dec 11:03:22 11:12:55 26° 337° (NNW) 11:22:40 29.354- 29.394
DELFI C3 03 Dec 11:06:14 11:06:39 10° 296° (WNW) 11:07:05 145.870
DUCHIFAT 1 03 Dec 11:09:33 11:13:43 56° 259° (W) 11:17:56 145.980
SPROUT 03 Dec 11:12:21 11:14:57 15° 92° (E) 11:17:30 437.525
AISAT 03 Dec 11:13:40 11:17:28 27° 96° (E) 11:21:15 437.250
POPSAT HIP 1 03 Dec 11:24:41 11:28:33 33° 263° (W) 11:32:27 437.405
JAS-2 03 Dec 11:33:52 11:39:40 30° 263° (W) 11:44:57 435.910
CUBEBUG 1 03 Dec 11:47:43 11:52:11 88° 286° (WNW) 11:56:37 437.445
Gurwin Techsat 1B 03 Dec 11:49:37 11:53:17 19° 63° (ENE) 11:56:58 435.225
50 SAT 03 Dec 11:50:04 11:53:34 55° 101° (E) 11:57:04 437.505
VELOX 1 03 Dec 11:50:19 11:54:47 65° 102° (ESE) 11:59:13 145.980
DANDE 03 Dec 11:53:39 11:55:17 12° 285° (WNW) 11:56:48 436.750
Cosmos 2499 03 Dec 12:05:33 12:14:17 87° 264° (W) 12:22:21 435.465 / 435.565
PCSat 03 Dec 12:13:30 12:18:53 68° 300° (WNW) 12:24:19 145.827
DX 1 03 Dec 12:14:09 12:18:31 62° 102° (ESE) 12:22:52 434.975-435.025
GONETS M04 03 Dec 12:16:38 12:25:22 84° 265° (W) 12:34:06
Oscar 19 03 Dec 12:16:49 12:21:51 65° 74° (ENE) 12:26:58 437.125/150
BUGSAT 1 03 Dec 12:20:15 12:23:39 23° 265° (W) 12:27:05 437.445
AO-85 03 Dec 12:27:08 12:30:08 21° 248° (WSW) 12:33:06 145.980
UKube-1 03 Dec 12:27:30 12:31:49 65° 102° (ESE) 12:36:07 .
ESTCUBE 1 03 Dec 12:30:47 12:34:04 20° 294° (WNW) 12:37:21 437.505/2401.250
ITAMSAT 1 03 Dec 12:41:29 12:43:57 13° 60° (ENE) 12:46:24 435.822/435.867
TISAT 1 03 Dec 12:44:34 12:48:09 26° 96° (E) 12:51:41 437.305
SPROUT 03 Dec 12:46:59 12:51:04 42° 288° (WNW) 12:55:06 437.525
AISAT 03 Dec 12:50:04 12:53:51 27° 292° (WNW) 12:57:37 437.250
AO-7 03 Dec 13:01:08 13:07:35 26° 55° (NE) 13:14:02 29.400- 29.500
ITUPSAT 1 03 Dec 13:17:10 13:18:31 11° 90° (E) 13:19:51 437.325
